| time (UTC) | temp F | wind direction | speed knots | gust knots | rain 1hr in | rain 24hr in | rain mn in | humidity % | barometer mb |
| 20260504011148 | 50 | 203 | 3.5 | 5.2 | 0.00 | 0.00 | 0.00 | 76 | 1012.4 |
| 20260504010644 | 50 | 200 | 0.9 | 5.2 | 0.00 | 0.00 | 0.00 | 76 | 1012.5 |
| 20260504010140 | 50 | 220 | 5.2 | 7.0 | 0.00 | 0.00 | 0.00 | 76 | 1012.3 |
| 20260504005637 | 50 | 209 | 7.0 | 7.8 | 0.00 | 0.00 | 0.00 | 76 | 1012.5 |
| 20260504005133 | 50 | 196 | 2.6 | 6.1 | 0.00 | 0.00 | 0.00 | 76 | 1012.6 |
| 20260504004632 | 50 | 189 | 3.5 | 7.8 | 0.00 | 0.00 | 0.00 | 76 | 1012.7 |
| 20260504004129 | 50 | 222 | 2.6 | 5.2 | 0.00 | 0.00 | 0.00 | 75 | 1012.7 |
| 20260504003625 | 50 | 193 | 0.9 | 1.7 | 0.00 | 0.00 | 0.00 | 74 | 1012.5 |
| 20260504003122 | 50 | 195 | 1.7 | 4.3 | 0.00 | 0.00 | 0.00 | 73 | 1012.6 |
| 20260504002618 | 50 | 209 | 4.3 | 5.2 | 0.00 | 0.00 | 0.00 | 72 | 1012.7 |
| 20260504002116 | 50 | 224 | 1.7 | 4.3 | 0.00 | 0.00 | 0.00 | 72 | 1012.8 |
| 20260504001608 | 50 | 200 | 3.5 | 7.0 | 0.00 | 0.00 | 0.00 | 72 | 1012.6 |
| 20260504001103 | 50 | 214 | 6.1 | 8.7 | 0.00 | 0.00 | 0.00 | 71 | 1012.8 |
| 20260504000601 | 51 | 219 | 4.3 | 7.0 | 0.00 | 0.00 | 0.00 | 71 | 1012.9 |
| 20260504000059 | 51 | 215 | 8.7 | 12.2 | 0.00 | 0.00 | 0.00 | 70 | 1012.9 |
| 20260503235556 | 51 | 225 | 7.0 | 13.0 | 0.00 | 0.00 | 0.00 | 69 | 1012.9 |
| 20260503235053 | 51 | 269 | 7.0 | 9.6 | 0.00 | 0.00 | 0.00 | 69 | 1013.2 |
| 20260503234551 | 51 | 236 | 10.4 | 11.3 | 0.00 | 0.00 | 0.00 | 68 | 1013.1 |
| 20260503234049 | 51 | 296 | 8.7 | 11.3 | 0.00 | 0.00 | 0.00 | 67 | 1013.3 |
| 20260503233545 | 52 | 217 | 9.6 | 12.2 | 0.00 | 0.00 | 0.00 | 66 | 1013.5 |
| 20260503233041 | 52 | 240 | 8.7 | 21.7 | 0.00 | 0.00 | 0.00 | 65 | 1013.1 |
| 20260503232539 | 52 | 223 | 9.6 | 17.4 | 0.00 | 0.00 | 0.00 | 63 | 1013.3 |
| 20260503232036 | 53 | 264 | 10.4 | 12.2 | 0.00 | 0.00 | 0.00 | 62 | 1013.3 |
| 20260503231534 | 53 | 288 | 11.3 | 19.1 | 0.00 | 0.00 | 0.00 | 62 | 1013.2 |
| 20260503231030 | 53 | 271 | 13.0 | 17.4 | 0.00 | 0.00 | 0.00 | 60 | 1012.9 |
| 20260503230526 | 55 | 256 | 10.4 | 13.0 | 0.00 | 0.00 | 0.00 | 58 | 1012.8 |
| 20260503230024 | 56 | 248 | 6.1 | 8.7 | 0.00 | 0.00 | 0.00 | 55 | 1012.8 |
| 20260503225521 | 58 | 273 | 7.0 | 11.3 | 0.00 | 0.00 | 0.00 | 44 | 1012.6 |
| 20260503225015 | 58 | 214 | 3.5 | 6.1 | 0.00 | 0.00 | 0.00 | 44 | 1012.4 |
| 20260503224513 | 58 | 191 | 2.6 | 15.6 | 0.00 | 0.00 | 0.00 | 45 | 1012.7 |
| 20260503224006 | 58 | 242 | 8.7 | 15.6 | 0.00 | 0.00 | 0.00 | 44 | 1012.6 |
| 20260503223503 | 59 | 271 | 6.1 | 12.2 | 0.00 | 0.00 | 0.00 | 43 | 1012.6 |
| 20260503222958 | 59 | 210 | 7.8 | 13.9 | 0.00 | 0.00 | 0.00 | 42 | 1012.5 |
| 20260503222457 | 59 | 239 | 2.6 | 7.8 | 0.00 | 0.00 | 0.00 | 42 | 1012.4 |
| 20260503221955 | 59 | 210 | 4.3 | 8.7 | 0.00 | 0.00 | 0.00 | 42 | 1012.8 |
| 20260503221453 | 59 | 266 | 5.2 | 8.7 | 0.00 | 0.00 | 0.00 | 42 | 1012.7 |
| 20260503220950 | 59 | 256 | 4.3 | 7.8 | 0.00 | 0.00 | 0.00 | 42 | 1012.4 |
| 20260503220446 | 59 | 189 | 7.8 | 11.3 | 0.00 | 0.00 | 0.00 | 41 | 1012.9 |
| 20260503215943 | 59 | 228 | 6.1 | 9.6 | 0.00 | 0.00 | 0.00 | 40 | 1012.7 |
| 20260503215440 | 59 | 250 | 7.8 | 18.2 | 0.00 | 0.00 | 0.00 | 41 | 1012.8 |
| 20260503214937 | 59 | 237 | 8.7 | 12.2 | 0.00 | 0.00 | 0.00 | 41 | 1012.8 |
| 20260503214435 | 59 | 214 | 4.3 | 9.6 | 0.00 | 0.00 | 0.00 | 43 | 1012.8 |
| 20260503213932 | 59 | 207 | 7.0 | 13.9 | 0.00 | 0.00 | 0.00 | 41 | 1012.7 |
| 20260503213430 | 60 | 204 | 6.1 | 14.8 | 0.00 | 0.00 | 0.00 | 41 | 1012.8 |
| 20260503212926 | 60 | 254 | 3.5 | 12.2 | 0.00 | 0.00 | 0.00 | 41 | 1012.9 |
| 20260503212424 | 60 | 243 | 4.3 | 11.3 | 0.00 | 0.00 | 0.00 | 40 | 1012.8 |
| 20260503211921 | 60 | 232 | 8.7 | 17.4 | 0.00 | 0.00 | 0.00 | 39 | 1012.9 |
| 20260503211418 | 60 | 220 | 6.1 | 13.0 | 0.00 | 0.00 | 0.00 | 41 | 1013.0 |
| 20260503210913 | 59 | 227 | 7.8 | 20.0 | 0.00 | 0.00 | 0.00 | 40 | 1012.9 |
| 20260503210411 | 59 | 218 | 10.4 | 17.4 | 0.00 | 0.00 | 0.00 | 40 | 1013.1 |
| 20260503205911 | 60 | 288 | 7.8 | 12.2 | 0.00 | 0.00 | 0.00 | 41 | 1013.1 |
| 20260503205409 | 59 | 223 | 9.6 | 13.9 | 0.00 | 0.00 | 0.00 | 41 | 1013.1 |
| 20260503204904 | 60 | 221 | 8.7 | 12.2 | 0.00 | 0.00 | 0.00 | 40 | 1013.0 |
| 20260503204402 | 60 | 246 | 10.4 | 13.9 | 0.00 | 0.00 | 0.00 | 41 | 1013.0 |
| 20260503203859 | 59 | 202 | 7.0 | 19.1 | 0.00 | 0.00 | 0.00 | 42 | 1013.1 |
| 20260503203356 | 60 | 216 | 5.2 | 11.3 | 0.00 | 0.00 | 0.00 | 41 | 1013.2 |
| 20260503202853 | 60 | 226 | 10.4 | 13.9 | 0.00 | 0.00 | 0.00 | 40 | 1013.3 |
| 20260503202351 | 60 | 262 | 5.2 | 13.0 | 0.00 | 0.00 | 0.00 | 40 | 1013.7 |
| 20260503201849 | 60 | 245 | 7.8 | 13.9 | 0.00 | 0.00 | 0.00 | 40 | 1013.5 |
| 20260503201346 | 59 | 225 | 10.4 | 20.0 | 0.00 | 0.00 | 0.00 | 39 | 1013.5 |
| 20260503200844 | 60 | 221 | 8.7 | 11.3 | 0.00 | 0.00 | 0.00 | 41 | 1013.6 |
| 20260503200339 | 60 | 222 | 7.0 | 13.0 | 0.00 | 0.00 | 0.00 | 40 | 1013.7 |
| 20260503195837 | 60 | 219 | 9.6 | 13.0 | 0.00 | 0.00 | 0.00 | 39 | 1013.7 |
| 20260503195333 | 60 | 234 | 6.1 | 7.0 | 0.00 | 0.00 | 0.00 | 40 | 1013.7 |
| 20260503194830 | 60 | 227 | 9.6 | 13.9 | 0.00 | 0.00 | 0.00 | 40 | 1013.9 |
| 20260503194326 | 60 | 233 | 11.3 | 14.8 | 0.00 | 0.00 | 0.00 | 40 | 1013.9 |
| 20260503193823 | 60 | 238 | 9.6 | 21.7 | 0.00 | 0.00 | 0.00 | 41 | 1013.9 |
| 20260503193319 | 60 | 229 | 7.8 | 12.2 | 0.00 | 0.00 | 0.00 | 40 | 1013.9 |
| 20260503192815 | 59 | 197 | 7.8 | 14.8 | 0.00 | 0.00 | 0.00 | 41 | 1014.1 |
| 20260503192310 | 60 | 221 | 6.1 | 11.3 | 0.00 | 0.00 | 0.00 | 42 | 1014.4 |
| 20260503191806 | 59 | 225 | 6.1 | 13.0 | 0.00 | 0.00 | 0.00 | 43 | 1014.2 |
| 20260503191303 | 59 | 226 | 10.4 | 15.6 | 0.00 | 0.00 | 0.00 | 41 | 1014.4 |
| 20260503190800 | 60 | 207 | 10.4 | 13.9 | 0.00 | 0.00 | 0.00 | 41 | 1014.6 |
| 20260503190257 | 59 | 211 | 6.1 | 13.0 | 0.00 | 0.00 | 0.00 | 41 | 1014.5 |
| 20260503185754 | 60 | 241 | 6.1 | 12.2 | 0.00 | 0.00 | 0.00 | 42 | 1014.6 |
| 20260503185250 | 60 | 238 | 7.0 | 17.4 | 0.00 | 0.00 | 0.00 | 42 | 1014.7 |
| 20260503184745 | 59 | 215 | 5.2 | 13.9 | 0.00 | 0.00 | 0.00 | 42 | 1014.8 |
| 20260503184241 | 59 | 212 | 7.0 | 15.6 | 0.00 | 0.00 | 0.00 | 42 | 1014.7 |
| 20260503183737 | 58 | 220 | 13.0 | 19.1 | 0.00 | 0.00 | 0.00 | 42 | 1015.1 |
| 20260503183235 | 59 | 245 | 7.8 | 12.2 | 0.00 | 0.00 | 0.00 | 42 | 1015.0 |
| 20260503182733 | 59 | 247 | 11.3 | 17.4 | 0.00 | 0.00 | 0.00 | 41 | 1014.9 |
| 20260503182231 | 59 | 236 | 9.6 | 13.0 | 0.00 | 0.00 | 0.00 | 41 | 1015.3 |
| 20260503181727 | 59 | 263 | 5.2 | 9.6 | 0.00 | 0.00 | 0.00 | 42 | 1015.1 |
| 20260503181219 | 58 | 232 | 4.3 | 8.7 | 0.00 | 0.00 | 0.00 | 43 | 1015.3 |
| 20260503180715 | 59 | 217 | 7.0 | 13.0 | 0.00 | 0.00 | 0.00 | 42 | 1015.4 |
| 20260503180214 | 59 | 219 | 5.2 | 14.8 | 0.00 | 0.00 | 0.00 | 42 | 1015.6 |
| 20260503175710 | 58 | 212 | 11.3 | 13.0 | 0.00 | 0.00 | 0.00 | 41 | 1015.3 |
| 20260503175208 | 60 | 205 | 7.0 | 11.3 | 0.00 | 0.00 | 0.00 | 40 | 1015.8 |
| 20260503174704 | 59 | 226 | 2.6 | 9.6 | 0.00 | 0.00 | 0.00 | 43 | 1015.5 |
| 20260503174202 | 59 | 205 | 9.6 | 12.2 | 0.00 | 0.00 | 0.00 | 42 | 1015.6 |
| 20260503173656 | 58 | 160 | 7.0 | 13.0 | 0.00 | 0.00 | 0.00 | 41 | 1015.9 |
| 20260503173153 | 58 | 240 | 7.8 | 12.2 | 0.00 | 0.00 | 0.00 | 43 | 1015.8 |
| 20260503172650 | 58 | 237 | 7.8 | 14.8 | 0.00 | 0.00 | 0.00 | 44 | 1015.8 |
| 20260503172147 | 58 | 195 | 7.8 | 8.7 | 0.00 | 0.00 | 0.00 | 44 | 1015.9 |
| 20260503171643 | 58 | 229 | 3.5 | 7.8 | 0.00 | 0.00 | 0.00 | 43 | 1016.0 |
| 20260503171141 | 58 | 225 | 3.5 | 11.3 | 0.00 | 0.00 | 0.00 | 44 | 1016.0 |
| 20260503170638 | 58 | 253 | 7.0 | 12.2 | 0.00 | 0.00 | 0.00 | 44 | 1016.1 |
| 20260503170135 | 58 | 218 | 8.7 | 13.0 | 0.00 | 0.00 | 0.00 | 43 | 1016.4 |
| 20260503150526 | 54 | 225 | 7.8 | 9.6 | 0.00 | 0.00 | 0.00 | 51 | 1018.1 |
| 20260503131419 | 46 | 248 | 4.3 | 8.7 | 0.00 | 0.00 | 0.00 | 61 | 1018.9 |
| 20260503130916 | 46 | 221 | 2.6 | 7.8 | 0.00 | 0.00 | 0.00 | 62 | 1019.0 |
| 20260503130414 | 46 | 218 | 4.3 | 11.3 | 0.00 | 0.00 | 0.00 | 60 | 1019.1 |
| 20260503110812 | 35 | 213 | 1.7 | 2.6 | 0.00 | 0.00 | 0.00 | 83 | 1018.7 |
| 20260503110309 | 35 | 202 | 2.6 | 2.6 | 0.00 | 0.00 | 0.00 | 84 | 1018.5 |
| 20260503100235 | 34 | 202 | 0.9 | 1.7 | 0.00 | 0.00 | 0.00 | 85 | 1018.2 |
| 20260503090200 | 35 | 210 | 0.9 | 1.7 | 0.00 | 0.00 | 0.00 | 82 | 1018.2 |
| 20260503081630 | 36 | 237 | 0.9 | 1.7 | 0.00 | 0.00 | 0.00 | 79 | 1017.9 |
| 20260503081127 | 36 | 233 | 0.9 | 0.9 | 0.00 | 0.00 | 0.00 | 79 | 1018.0 |
| 20260503080623 | 36 | 227 | 0.9 | 1.7 | 0.00 | 0.00 | 0.00 | 79 | 1018.1 |
| 20260503080120 | 36 | 226 | 0.9 | 1.7 | 0.00 | 0.00 | 0.00 | 79 | 1018.1 |
| 20260503072557 | 37 | 225 | 1.7 | 1.7 | 0.00 | 0.00 | 0.00 | 80 | 1017.9 |
| 20260503072054 | 37 | 184 | 2.6 | 2.6 | 0.00 | 0.00 | 0.00 | 80 | 1018.1 |
| 20260503071551 | 37 | 212 | 1.7 | 2.6 | 0.00 | 0.00 | 0.00 | 80 | 1018.1 |
| 20260503071048 | 37 | 213 | 1.7 | 1.7 | 0.00 | 0.00 | 0.00 | 80 | 1018.1 |
| 20260503070544 | 37 | 211 | 1.7 | 1.7 | 0.00 | 0.00 | 0.00 | 80 | 1017.9 |
| 20260503055003 | 38 | 216 | 0.9 | 0.9 | 0.00 | 0.00 | 0.00 | 77 | 1018.2 |
| 20260503054459 | 38 | 211 | 0.9 | 0.9 | 0.00 | 0.00 | 0.00 | 77 | 1018.3 |
| 20260503053957 | 39 | 209 | 0.9 | 1.7 | 0.00 | 0.00 | 0.00 | 77 | 1018.1 |
| 20260503053454 | 38 | 217 | 0.9 | 0.9 | 0.00 | 0.00 | 0.00 | 77 | 1018.3 |
| 20260503052951 | 39 | 212 | 0.9 | 0.9 | 0.00 | 0.00 | 0.00 | 77 | 1018.3 |
| 20260503052448 | 39 | 217 | 0.9 | 1.7 | 0.00 | 0.00 | 0.00 | 77 | 1018.0 |
| 20260503051944 | 39 | 212 | 0.9 | 1.7 | 0.00 | 0.00 | 0.00 | 78 | 1018.1 |
| 20260503051440 | 38 | 217 | 0.9 | 0.9 | 0.00 | 0.00 | 0.00 | 79 | 1018.1 |
| 20260503050938 | 38 | 221 | 0.0 | 0.9 | 0.00 | 0.00 | 0.00 | 79 | 1018.0 |
| 20260503050433 | 39 | 213 | 0.9 | 0.9 | 0.00 | 0.00 | 0.00 | 79 | 1018.1 |
| 20260503045932 | 38 | 222 | 1.7 | 1.7 | 0.00 | 0.00 | 0.00 | 79 | 1018.1 |
| 20260503045429 | 38 | 215 | 1.7 | 1.7 | 0.00 | 0.00 | 0.00 | 79 | 1018.1 |
| 20260503044925 | 39 | 214 | 0.9 | 0.9 | 0.00 | 0.00 | 0.00 | 79 | 1018.2 |
| 20260503044422 | 38 | 209 | 0.9 | 0.9 | 0.00 | 0.00 | 0.00 | 80 | 1018.0 |
| 20260503043920 | 38 | 220 | 0.0 | 0.0 | 0.00 | 0.00 | 0.00 | 79 | 1018.1 |
| 20260503043416 | 38 | 220 | 0.0 | 0.9 | 0.00 | 0.00 | 0.00 | 80 | 1018.0 |
| 20260503042913 | 39 | 217 | 0.9 | 0.9 | 0.00 | 0.00 | 0.00 | 80 | 1018.2 |
| 20260503042409 | 39 | 209 | 0.9 | 0.9 | 0.00 | 0.00 | 0.00 | 79 | 1018.1 |
| 20260503041906 | 39 | 211 | 0.9 | 0.9 | 0.00 | 0.00 | 0.00 | 79 | 1017.9 |
| 20260503041403 | 39 | 214 | 0.9 | 0.9 | 0.00 | 0.00 | 0.00 | 79 | 1017.9 |
| 20260503040900 | 39 | 210 | 0.9 | 0.9 | 0.00 | 0.00 | 0.00 | 79 | 1017.9 |
| 20260503040358 | 39 | 209 | 0.9 | 0.9 | 0.00 | 0.00 | 0.00 | 80 | 1017.9 |
| 20260503035854 | 39 | 213 | 0.9 | 0.9 | 0.00 | 0.01 | 0.01 | 80 | 1018.1 |
| 20260503035351 | 39 | 215 | 0.0 | 0.9 | 0.00 | 0.01 | 0.01 | 80 | 1018.3 |
| 20260503034849 | 39 | 215 | 0.0 | 0.9 | 0.00 | 0.01 | 0.01 | 80 | 1017.9 |
| 20260503034346 | 40 | 215 | 0.0 | 0.9 | 0.00 | 0.01 | 0.01 | 80 | 1018.2 |
| 20260503033843 | 40 | 212 | 0.0 | 0.9 | 0.00 | 0.01 | 0.01 | 80 | 1018.0 |
| 20260503033341 | 40 | 211 | 0.0 | 0.9 | 0.00 | 0.01 | 0.01 | 80 | 1018.1 |
| 20260503032838 | 40 | 211 | 0.0 | 0.9 | 0.00 | 0.01 | 0.01 | 80 | 1018.1 |
| 20260503032337 | 40 | 209 | 0.9 | 0.9 | 0.00 | 0.01 | 0.01 | 79 | 1018.2 |
| 20260503031834 | 40 | 216 | 0.0 | 0.0 | 0.00 | 0.01 | 0.01 | 81 | 1018.3 |
| 20260503031332 | 40 | 216 | 0.9 | 0.9 | 0.00 | 0.01 | 0.01 | 80 | 1018.1 |
| 20260503030828 | 40 | 212 | 0.0 | 0.0 | 0.00 | 0.01 | 0.01 | 80 | 1018.0 |
| 20260503030325 | 40 | 211 | 0.0 | 0.0 | 0.00 | 0.01 | 0.01 | 80 | 1018.1 |
| 20260503025821 | 40 | 212 | 0.0 | 0.0 | 0.00 | 0.01 | 0.01 | 79 | 1018.1 |
| 20260503025319 | 41 | 212 | 0.0 | 0.0 | 0.00 | 0.01 | 0.01 | 78 | 1018.2 |
| 20260503024815 | 41 | 211 | 0.0 | 0.0 | 0.00 | 0.01 | 0.01 | 77 | 1018.2 |
| 20260503024312 | 41 | 211 | 0.0 | 0.0 | 0.00 | 0.01 | 0.01 | 76 | 1018.3 |
| 20260503023809 | 41 | 212 | 0.0 | 0.0 | 0.00 | 0.01 | 0.01 | 76 | 1018.4 |
| 20260503023307 | 41 | 212 | 0.0 | 0.0 | 0.00 | 0.01 | 0.01 | 75 | 1018.4 |
| 20260503022803 | 41 | 210 | 0.0 | 0.9 | 0.00 | 0.01 | 0.01 | 75 | 1018.4 |
| 20260503022304 | 41 | 212 | 0.0 | 0.0 | 0.00 | 0.01 | 0.01 | 74 | 1018.3 |
| 20260503021800 | 41 | 209 | 0.0 | 0.9 | 0.00 | 0.01 | 0.01 | 74 | 1018.4 |
| 20260503021255 | 41 | 212 | 0.0 | 0.9 | 0.00 | 0.01 | 0.01 | 73 | 1018.3 |
| 20260503020754 | 41 | 218 | 0.0 | 0.0 | 0.00 | 0.01 | 0.01 | 73 | 1018.3 |
| 20260503020251 | 41 | 218 | 0.0 | 0.0 | 0.00 | 0.01 | 0.01 | 73 | 1018.3 |
| 20260503015747 | 41 | 218 | 0.0 | 0.0 | 0.00 | 0.01 | 0.01 | 72 | 1018.0 |
| 20260503015244 | 41 | 218 | 0.0 | 0.0 | 0.00 | 0.01 | 0.01 | 71 | 1018.2 |
| 20260503014740 | 42 | 218 | 0.0 | 0.0 | 0.00 | 0.01 | 0.01 | 71 | 1018.0 |
| 20260503014238 | 42 | 218 | 0.0 | 0.0 | 0.00 | 0.01 | 0.01 | 70 | 1017.9 |
| 20260503013735 | 42 | 217 | 0.0 | 0.0 | 0.00 | 0.01 | 0.01 | 70 | 1018.1 |
| 20260503013233 | 42 | 217 | 0.0 | 0.0 | 0.00 | 0.01 | 0.01 | 68 | 1018.0 |
| 20260503012730 | 42 | 219 | 0.0 | 0.9 | 0.00 | 0.01 | 0.01 | 68 | 1017.8 |
| 20260503012227 | 42 | 215 | 0.0 | 0.0 | 0.00 | 0.01 | 0.01 | 68 | 1017.9 |
| 20260503011723 | 43 | 219 | 0.0 | 0.9 | 0.00 | 0.01 | 0.01 | 68 | 1017.8 |